Location: Concord
(40.6082°N, 74.0843°W)
Time: 08:50:57
(UTC+00:00)

Daily predictions for brighter satellites

Satellite Brightness Start Highest point End
(mag) Time Altitude Azimuth Time Altitude Azimuth Time Altitude Azimuth
Cosmos 2278 4.4 21:57:27 10° SSE 22:02:30 34° ESE 22:07:36 10° NE
Sich 1 3.6 21:59:56 10° N 22:04:00 37° ENE 22:08:05 10° SE
Cosmos 2233 Rocket 4.2 22:02:27 10° N 22:08:46 80° W 22:15:01 10° S
Meteor 2-20 4.5 22:02:49 10° S 22:08:54 76° E 22:15:04 10° N
Cosmos 1656 3.7 22:04:24 10° SSW 22:09:57 90° SE 22:15:29 10° NNE
Cosmos 1666 Rocket 4.2 22:07:17 10° NNE 22:11:14 32° ENE 22:15:07 10° SE
COSMO-SKYMED 1 3.8 22:10:21 10° NE 22:13:43 22° E 22:17:05 10° SE
AQUARIUS 4.2 22:09:50 10° SSE 22:14:14 58° ENE 22:18:40 10° N
Cosmos 1862 4.1 22:11:33 10° NNE 22:15:04 29° ENE 22:18:34 10° SE
Cosmos 2221 4.1 22:13:59 10° SSW 22:18:00 38° WNW 22:22:04 10° N
IRS-1C Rocket 4.1 22:15:11 10° SSE 22:20:27 90° ENE 22:25:46 10° NNW
APEX 4.0 22:19:30 10° SSE 22:22:35 25° ESE 22:24:47 13° ENE
Cosmos 923 Rocket 4.0 22:20:41 10° S 22:25:52 71° ESE 22:31:04 10° NNE
Cosmos 1607 4.3 22:21:52 10° NW 22:28:03 70° WSW 22:34:17 10° SSE
ERBS 4.1 22:27:53 10° W 22:30:43 25° NW 22:33:34 10° NNE
Cosmos 2056 Rocket 4.4 22:29:31 10° N 22:33:48 26° ENE 22:38:06 10° ESE
Cosmos 1891 Rocket 4.5 22:29:57 10° N 22:36:15 67° E 22:42:23 10° SSE
YAOGAN 1 3.7 22:33:02 10° ESE 22:36:24 23° ENE 22:39:47 10° NNE
Cosmos 1464 Rocket 3.9 22:30:40 10° N 22:36:47 67° E 22:42:52 10° SSE
Cosmos 1470 Rocket 4.3 22:38:26 10° NNE 22:42:29 32° ENE 22:46:29 10° SE
CSL-04 Rocket 4.2 22:41:32 10° SE 22:46:18 34° ENE 22:51:01 10° N
Cosmos 1072 Rocket 4.5 22:41:20 10° N 22:47:31 88° E 22:53:44 10° S
SeaSat 1 2.6 22:44:02 10° SE 22:48:47 51° ENE 22:53:34 10° NNW
CORIOLIS 4.4 22:43:29 10° S 22:48:51 73° WSW 22:54:19 10° NNW
PSLV R/B 3.7 22:51:05 10° W 22:53:29 38° SSW 22:54:37 23° SE
Cosmos 1633 3.0 22:52:27 10° NNW 22:56:03 62° W 22:59:37 10° S
H-2A R/B 4.1 22:53:17 10° S 22:56:57 43° W 23:00:37 10° NNW
SL-16 R/B 3.5 22:53:08 10° SE 22:56:48 19° ESE 22:56:48 19° ESE
Cosmos 1980 Rocket 2.1 22:53:07 10° SSW 22:58:44 71° ESE 23:04:11 11° NNE
Envisat 2.9 22:53:56 10° SSE 22:59:00 85° ENE 23:04:07 10° NNW
SKYMED 2 3.4 22:57:42 10° NNE 23:02:05 75° ESE 23:06:24 10° S
Meteor 2-11 Rocket 4.3 22:58:36 10° N 23:04:45 78° E 23:10:53 10° SSE
Cosmos 2322 Rocket 3.7 23:01:03 10° SE 23:03:32 18° ESE 23:03:32 18° ESE
NOSS 2-3 (E) 4.4 23:01:05 10° SW 23:05:18 51° NW 23:09:31 13° NNE
Cosmos 2346 Rocket 4.4 22:59:47 10° S 23:05:59 73° E 23:12:09 10° N
Cosmos 2297 Rocket 3.9 23:02:01 10° NW 23:07:06 35° WSW 23:12:08 10° SSW
Cosmos 2227 Rocket 3.8 23:02:26 10° NW 23:07:37 38° WSW 23:12:45 10° S
Okean-O 3.5 23:07:39 10° S 23:11:56 51° W 23:16:17 10° NNW
NOSS 3-1 (A) 4.5 23:08:30 10° WSW 23:13:42 39° NW 23:19:40 10° NNE
GPS 2-04 Rocket1 3.5 23:11:53 10° SW 23:14:56 29° S 23:15:22 28° SSE
Cosmos 397 4.5 23:12:14 10° NNW 23:16:18 81° WSW 23:20:45 10° SSE
COSMOS 2455 4.4 23:12:16 10° SSE 23:14:28 17° SE 23:14:28 17° SE
GEOS 3 Rocket 4.5 23:17:05 13° NNE 23:21:32 47° NW 23:26:33 10° WSW
CZ-4 R/B 1.4 23:19:33 10° SSE 23:23:42 84° WSW 23:27:48 10° NNW
Cosmos 158 Rocket 4.0 23:19:13 10° SSW 23:24:31 82° WNW 23:28:39 17° NNE
Cosmos 1371 Rocket 3.8 23:19:21 10° NNW 23:24:33 85° ENE 23:29:44 10° SSE
Cosmos 2263 Rocket 2.8 23:20:06 10° N 23:24:45 35° NE 23:24:45 35° NE
Lacrosse 4 Rocket 3.8 23:24:18 10° W 23:27:10 18° NW 23:30:02 10° N
YAOGAN 6 3.1 23:24:27 10° S 23:27:53 57° W 23:31:20 10° NNW
Centaur D-1A AC-31 3.4 23:30:01 10° S 23:32:25 16° SSE 23:32:27 16° SSE
GENESIS II 4.1 23:29:15 10° SSW 23:33:15 79° ESE 23:33:15 79° ESE
SL-8 R/B 3.6 23:29:21 10° SW 23:34:09 77° SSE 23:34:50 63° E
Cosmos 2228 Rocket 2.9 23:30:34 10° S 23:34:59 75° E 23:35:48 58° NNE
Cosmos 1697 Rocket 4.3 23:32:11 10° WSW 23:37:13 32° WNW 23:42:16 10° N
Cosmos 1151 Rocket 4.4 23:34:57 10° SSW 23:39:03 40° WNW 23:43:11 10° N
DELTA 2 R/B (1) 4.0 23:35:10 10° SW 23:40:27 45° SSE 23:41:05 43° SE
Ariane Rocket 4.2 23:44:24 28° NNE 23:44:24 28° NNE 23:46:53 10° N
Cosmos 1933 3.8 23:40:10 10° SSW 23:44:11 60° W 23:45:33 37° NNW
CENTAUR R/B 4.4 23:39:50 10° NNW 23:45:20 20° NNE 23:45:21 20° NNE
COSMO-SKYMED 1 4.3 23:46:03 10° N 23:49:54 32° WNW 23:53:46 10° SW
Cosmos 1933 Rocket 3.9 23:45:53 10° NNW 23:50:10 61° W 23:54:28 10° S
